ARIANE 2 DEB, 27602

Orbit data source: Space-Track

ARIANE 2 DEB, 27602 is space debris in HEO originally from a launch on Fri, 27 Jan 1989 UTC launched from the French Guiana (FRGUI). Debris objects in space refer to the collection of defunct objects orbiting the Earth. Examples of debris include non-operational satellites, rocket bodies, and fragments generated from explosions, collisions, or faulty payload assembly.

Loading next visibility...
Identifier
27602, 1989-006AC
Orbit
HEO
Country
Flag of FRFR
Related business
Manufacturer
EADS/LV
Mission
Spacecraft
Bus & Motor
Unknown
Mass
Unknown
Launch date (UTC)
1989-01-27 (38 years ago)
Launch vehicle
Unknown
Launch site
French Guiana (FRGUI)
Object type
Payload
Rocket body
Debris
Shape & HBR
Unknown shape, 1.1 m
Radar Cross Section
Medium (>0.1 m² and <1 m²)

Expand to show TLE details & history
Last TLE update: 6 months ago

TLE from 6 months ago
0 ARIANE 2 DEB
1 27602U 89006AC  26081.48607134 -.00000370  00000-0 -15245-1 0  9990
2 27602   7.7885  16.6981 7068112 216.2694 328.5037  2.25350494 97716
Epoch: 2026-03-22T11:39Z
TLE epoch observation values (Epoch: 2026-03-22T11:39:56.563Z)
Latitude
7.69988°
Longitude
120.0456°
Altitude
12,009.944 km
Speed
5.209 km/s
True Right ascension
07h 40m 05s
True Declination
7° 40' 56"
Sunlit
Object was in daylight at epoch
Visualization orbit readout
Latitude
Unknown
Longitude
Unknown
Altitude
Unknown
Speed
Unknown
Apparent Right ascension
Unknown
Apparent Declination
Unknown
Sunlit
N/A
Visualization observer readout
Local Sidereal Time
10:22:19
Azimuth
Unknown
Elevation
Unknown
Doppler factor
Unknown
Orbital elements
Apogee altitude
35,575.433 km
Perigee altitude
828.47 km
Semi-major axis
24,580.088 km
Eccentricity
0.70681
Inclination
7.7885°
RAAN
16.6981°
Arg. of periapsis
216.2694°
True anomaly
241.80035°
Mean anomaly
328.5037°
Eccentric anomaly
290.59443°
Mean motion
0.56321 °/min
Orbital period
639.2 mins
BSTAR
-0.015245
Loading maneuver chart data...
Computing Atmospheric mass density...
Loading historical data...
Loading historical data...
Loading historical data...
Loading historical data...
Loading historical data...
Loading historical data...
Loading historical data...

Documentation

Showing up to 5 results
|